COSMOS 2500 (755) (40001 NORAD) Tracking and Keplerian Element Data

This shows tracking and keplerian element data for the satellite.

Feedback or suggestion? Click here.




ElementValue
Catalog40001
NameCOSMOS 2500 (755)
Epoch Orbit3504
Epoch Day349.19576069
Epoch Year2018
RAAN46.0912
Inclination65.4931
Eccentricity0.0007767
Argument of Perigee211.3655
Mean Anonmoly221.7573
Mean Motion2.13102537
Decay Rate-5.4E-07
L11 40001U 14032A 18349.19576069 -.00000054 00000-0 00000+0 0 9992
L22 40001 65.4931 46.0912 0007767 211.3655 221.7573 2.13102537 35040

Live tracking and technical data element details for COSMOS 2500 (755) (NORAD 40001). COSMOS 2500 (755) can be tracked NOW for your location showing map with azimuth and elevation plus other details from your city location.

Track the satellite on the map from your city or location and see movement details for azimuth, elevation, latitude, longitude, range, height, and movement on the map or in text.







IsCatalogInMostPopularTable: catalog: 40001, numindb: 82
Update: records affected: 1



GetName: 40001 COSMOS 2500 (755)

Hit Count: updated at: Sun, 16 Dec 2018 04:16:32 GMT